Weather History for V.C. Bird, Antigua

Change the Weather History Date:

Monday, November 19, 2012

  Actual Average Record
Temperature  
Mean Temperature 80 °F -  
Max Temperature 84 °F 82 °F 87 °F (1997)
Min Temperature 75 °F 73 °F 70 °F (2013)
Cooling Degree Days 14    
Growing Degree Days 30 (Base 50)    
Moisture  
Dew Point 72 °F    
Average Humidity 75    
Maximum Humidity 94    
Minimum Humidity 57    
Precipitation  
Precipitation 0.01 in - - ()
Sea Level Pressure  
Sea Level Pressure 29.92 in    
Wind  
Wind Speed 8 mph ()    
Max Wind Speed 15 mph    
Max Gust Speed -    
Visibility 8.7 miles    
Events Rain    
Averages and records for this station are not official NWS values.
T = Trace of Precipitation, MM = Missing Value Source: Averaged Metar Reports

Daily Weather History Graph

Daily Weather History Graph

Search for Another Location

Airport:

Trip Planner

Search our weather history database for the weather conditions in past years. The results will help you decide how hot, cold, wet, or windy it might be!

Date:

Astronomy

Nov. 19, 2012 Rise Set
Actual Time 6:14 AM AST 5:31 PM AST
Civil Twilight 5:51 AM AST 5:54 PM AST
Nautical Twilight 5:24 AM AST 6:20 PM AST
Astronomical Twilight 4:58 AM AST 6:46 PM AST
Moon 11:32 AM AST (11/19) 11:30 PM AST (11/19)
Length of Visible Light 12h 02m
Length of Day
11h 17m
Waxing Crescent, 40% of the Moon is Illuminated
Nov 19
Waxing Crescent
Nov 20
First Quarter
Nov 28
Full
Dec 6
Last Quarter
Dec 13
New

Hourly Weather History & Observations

Time (AST) Temp. Heat Index Dew Point Humidity Pressure Visibility Wind Dir Wind Speed Gust Speed Precip Events Conditions
12:00 AM 78.8 °F - 75.2 °F 89% 29.95 in 6.2 mi SE 9.2 mph - N/A Rain Light Rain Showers
1:00 AM 75.2 °F - 73.4 °F 94% 29.95 in 6.2 mi Variable 1.2 mph - N/A Rain Light Rain Showers
2:00 AM 76 °F - 74 °F 90% 29.94 in 15 mi 2.3 mph - - Rain Light Rain Showers
2:00 AM 77.0 °F - 73.4 °F 89% 29.92 in 6.2 mi Variable 2.3 mph - N/A   Mostly Cloudy
3:00 AM 77.0 °F - 73.4 °F 89% 29.92 in 6.2 mi Variable 1.2 mph - N/A   Partly Cloudy
4:00 AM 77.0 °F - 75.2 °F 94% 29.92 in 6.2 mi SE 4.6 mph - N/A   Scattered Clouds
5:00 AM 78 °F - 74 °F 86% 29.91 in 17 mi East 15.0 mph - -   Widespread Dust
5:00 AM 78.8 °F - 73.4 °F 83% 29.92 in 6.2 mi ESE 9.2 mph - N/A   Partly Cloudy
6:00 AM 78.8 °F - 73.4 °F 83% 29.92 in 6.2 mi East 13.8 mph - N/A   Scattered Clouds
7:00 AM 78.8 °F - 73.4 °F 83% 29.95 in 6.2 mi ESE 13.8 mph - N/A   Partly Cloudy
8:00 AM 79 °F - 73 °F 76% 29.96 in 17 mi SE 12.7 mph - -   Widespread Dust
8:00 AM 78.8 °F - 73.4 °F 83% 29.95 in 6.2 mi SE 12.7 mph - N/A   Scattered Clouds
9:00 AM 82.4 °F 89.5 °F 75.2 °F 79% 29.95 in 6.2 mi SE 12.7 mph - N/A   Scattered Clouds
10:00 AM 84.2 °F 90.9 °F 73.4 °F 70% 29.95 in 6.2 mi SE 15.0 mph - N/A   Scattered Clouds
11:00 AM 84 °F - 73 °F 62% 29.95 in 17 mi ESE 15.0 mph - -   Widespread Dust
11:00 AM 84.2 °F 90.9 °F 73.4 °F 70% 29.95 in 6.2 mi ESE 15.0 mph - N/A   Partly Cloudy
12:00 PM 84.2 °F 90.9 °F 73.4 °F 70% 29.92 in - SE 12.7 mph - N/A   Scattered Clouds
1:00 PM 84.2 °F 90.9 °F 73.4 °F 70% 29.89 in 6.2 mi SE 13.8 mph - N/A   Scattered Clouds
2:00 PM 84 °F - 71 °F 57% 29.89 in 17 mi ESE 12.7 mph - -   Widespread Dust
2:00 PM 84.2 °F 89.6 °F 71.6 °F 66% 29.89 in 6.2 mi ESE 12.7 mph - N/A   Scattered Clouds
3:00 PM 84.2 °F 88.4 °F 69.8 °F 62% 29.86 in 6.2 mi SE 11.5 mph - N/A   Partly Cloudy
4:00 PM 82.4 °F 86.3 °F 69.8 °F 66% 29.89 in 6.2 mi ESE 10.4 mph - N/A   Partly Cloudy
5:00 PM 81 °F - 69 °F 58% 29.89 in 17 mi ESE 10.4 mph - -   Widespread Dust
5:00 PM 80.6 °F 83.2 °F 68.0 °F 65% 29.89 in 6.2 mi ESE 10.4 mph - N/A   Partly Cloudy
6:00 PM 78.8 °F - 69.8 °F 74% 29.89 in 6.2 mi ESE 9.2 mph - N/A   Partly Cloudy
7:00 PM 78.8 °F - 69.8 °F 74% 29.89 in 6.2 mi ESE 9.2 mph - N/A   Scattered Clouds
8:00 PM 80 °F - 69 °F 62% 29.91 in 17 mi ESE 8.1 mph - -   Widespread Dust
8:00 PM 78.8 °F - 69.8 °F 74% 29.89 in 6.2 mi ESE 8.1 mph - N/A   Partly Cloudy
9:00 PM 78.8 °F - 68.0 °F 69% 29.92 in 6.2 mi ESE 8.1 mph - N/A   Partly Cloudy
10:00 PM 78.8 °F - 69.8 °F 74% 29.92 in - ESE 6.9 mph - N/A   Clear
11:00 PM 78.8 °F - 69.8 °F 74% 29.92 in 6.2 mi ESE 6.9 mph - N/A   Partly Cloudy